ONEWEB-0688, 61596

Orbit data source: Space-Track

ONEWEB-0688, 61596 is a payload satellite owned by Eut. One Web (UK) in LEO that was launched on Sun, 20 Oct 2024 UTC via an FALCON 9 launch vehicle from the Air Force Western Test Range (AFWTR). Payload-class satellites include a variety of spacecraft equipped with specific instruments for various scientific and technological missions. These include communications satellites like Starlink; space stations such as the ISS; scientific satellites like the Hubble; Earth observation satellites from companies like Planet Labs, Umbra, and HawkEye 360; GPS; miniature CubeSats for education and research; and military/defense satellites.

Loading next visibility...
Identifier
61596, 2024-188C
Orbit
LEO
Last TLE update
21 hours ago
Origin
Manufacturer
One Web
Mission
Operational Commercial Communications
Bus & Motor
ARROW, Unknown motor
Mass
148 kg wet, ~140 kg dry
Launch date (UTC)
2024-10-20 (8 months ago)
Launch vehicle
FALCON 9
Launch site
Air Force Western Test Range (AFWTR)
Object type
Payload
Rocket body
Debris
Shape & HBR
Trap Box + 2 Pan, 5 m
Radar Cross Section
2.032 m², Large (>1 m²)

Expand to show TLE details & history

TLE from 21 hours ago
0 ONEWEB-0688
1 61596U 24188C   25181.52501634 -.00246179  00000-0 -63723+0 0  9994
2 61596  87.9138  75.9288 0001437 342.8559  17.2524 13.19139350 37652
Epoch: 2025-06-30T12:36Z
TLE epoch observation values (Epoch: 2025-06-30T12:36:01.411Z)
Latitude
-0.0001°
Longitude
-31.91066°
Altitude
1,189.871 km
Speed
7.259 km/s
True Right ascension
05h 03m 42s
True Declination
0° 00' 00"
Sunlit
Object was in daylight at epoch
Visualization orbit readout
Latitude
-67.52912°
Longitude
152.93976°
Altitude
1,215.382 km
Speed
7.246 km/s
Apparent Right ascension
11h 55m 12s
Apparent Declination
-68° 27' 29"
Sunlit
Object is in full shadow
Visualization observer readout
Local Sidereal Time
21:31:07
Azimuth
202.441° SSW
Elevation
-55.55°
Doppler factor
1
Orbital elements
Apogee altitude
1,186.203 km
Perigee altitude
1,184.029 km
Semi-major axis
7,563.253 km
Eccentricity
0.00014
Inclination
87.9138°
RAAN
75.9288°
Arg. of periapsis
342.8559°
True anomaly
Unknown
Mean anomaly
17.2524°
Eccentric anomaly
Unknown
Mean motion
3.29974 °/min
Orbital period
109.1 mins
BSTAR
-0.63723
Loading maneuver chart data...
Loading SW <> Apogee altitude chart data...
Loading historical data...
Loading historical data...
Loading historical data...
Loading historical data...
Loading historical data...
Loading historical data...
Loading historical data...

ONEWEB-0688 Visibility forecast

Observer location: undefined°, undefined°

Span
Click to sort rows by Start time (UTC) header in descending order
Start Az.
Max El. time (UTC)
Max El. Az.
Max El.
End time (UTC)
End Az.
10 mins2025-07-01 16:02:45.773Z120.833° SE2025-07-01 16:07:45.773Z72.169° E21.753°2025-07-01 16:12:45.773Z27.347° NE
12 mins2025-07-01 17:50:45.773Z198.097° SSW2025-07-01 17:55:45.773Z259.161° W40.776°2025-07-01 18:02:45.773Z352.424° N
7 mins2025-07-02 03:28:45.773Z42.87° NE2025-07-02 03:31:45.773Z70.231° E16.491°2025-07-02 03:35:45.773Z106.768° ESE
12 mins2025-07-02 05:16:45.773Z356.031° N2025-07-02 05:21:45.773Z314.143° NW44.188°2025-07-02 05:28:45.773Z186.916° SSW
4 mins2025-07-02 07:08:45.773Z303.25° NW2025-07-02 07:10:45.773Z286.034° WNW12.137°2025-07-02 07:12:45.773Z269.453° W
|